FW1589 Weather Reports


Display with metric or nautical units.
time (UTC)temp
F
wind
direction
speed
MPH
gust
MPH
rain 1hr
in
rain 24hr
in
rain mn
in
humidity
%
barometer
mb
20260901145559 60 232 2.0 7.0 0.00 0.00 0.00 90 997.9
20260901145053 60 226 2.0 4.0 0.00 0.00 0.00 90 997.8
20260901144548 60 248 1.0 4.0 0.00 0.00 0.00 90 997.7
20260901144040 60 269 2.0 5.0 0.00 0.00 0.00 90 997.6
20260901143535 59 221 2.0 5.0 0.00 0.00 0.00 90 997.5
20260901143028 59 202 2.0 6.0 0.00 0.00 0.00 90 997.4
20260901142523 59 263 2.0 6.0 0.00 0.00 0.00 90 997.4
20260901142016 59 206 2.0 4.0 0.00 0.00 0.00 90 997.3
20260901141004 59 253 2.0 6.0 0.00 0.00 0.00 89 997.2
20260901135456 59 213 2.0 7.0 0.00 0.00 0.00 89 997.0
20260901134956 59 228 2.0 5.0 0.00 0.00 0.00 89 997.1
20260901134456 59 276 2.0 5.0 0.00 0.00 0.00 89 997.0
20260901133955 59 242 2.0 6.0 0.00 0.00 0.00 89 997.0
20260901132955 59 229 3.0 7.0 0.00 0.00 0.00 89 996.9
20260901131952 59 246 1.0 4.0 0.00 0.00 0.00 89 996.8
20260901131451 59 230 1.0 4.0 0.00 0.00 0.00 89 996.7
20260901130449 59 200 2.0 5.0 0.00 0.00 0.00 89 996.6
20260901125949 59 194 2.0 6.0 0.00 0.00 0.00 89 996.5
20260901125842 59 248 2.0 6.0 0.00 0.00 0.00 89 996.4
20260901125744 59 241 2.0 8.0 0.00 0.00 0.00 89 996.5
20260901125644 59 211 3.0 8.0 0.00 0.00 0.00 89 996.6
20260901123948 59 258 3.0 8.0 0.00 0.00 0.00 89 996.5
20260901123449 59 237 2.0 6.0 0.00 0.00 0.00 89 996.6
20260901122942 59 254 2.0 5.0 0.00 0.00 0.00 89 996.5
20260901122437 59 223 1.0 5.0 0.00 0.00 0.00 89 996.5
20260901121931 59 292 1.0 4.0 0.00 0.00 0.00 89 996.5
20260901121425 59 213 2.0 4.0 0.00 0.00 0.00 89 996.5
20260901120919 59 239 2.0 4.0 0.00 0.00 0.00 89 996.3
20260901120412 59 192 1.0 3.0 0.00 0.00 0.00 89 996.4
20260901115907 59 211 0.0 3.0 0.00 0.00 0.00 89 996.3
20260901115407 59 242 1.0 4.0 0.00 0.00 0.00 89 996.3
20260901114904 59 200 1.0 4.0 0.00 0.00 0.00 89 996.4
20260901114403 59 217 1.0 5.0 0.00 0.00 0.00 89 996.3
20260901113904 59 252 2.0 5.0 0.00 0.00 0.00 89 996.5
20260901113405 59 237 1.0 4.0 0.00 0.00 0.00 89 996.5
20260901112904 59 203 1.0 4.0 0.00 0.00 0.00 89 996.6
20260901111903 59 234 2.0 5.0 0.00 0.00 0.00 89 996.7
20260901110903 59 279 2.0 4.0 0.00 0.00 0.00 89 996.7
20260901110401 59 218 2.0 5.0 0.00 0.00 0.00 89 996.7
20260901105903 59 245 2.0 5.0 0.00 0.00 0.00 89 996.7
20260901104859 59 250 3.0 6.0 0.00 0.00 0.00 89 996.6
20260901104400 59 213 3.0 7.0 0.00 0.00 0.00 89 996.5
20260901103900 59 232 2.0 7.0 0.00 0.00 0.00 89 996.6
20260901103401 59 282 2.0 4.0 0.00 0.00 0.00 89 996.5
20260901102855 59 223 1.0 6.0 0.00 0.00 0.00 89 996.6
20260901102353 59 257 1.0 6.0 0.00 0.00 0.00 89 996.5
20260901101851 60 238 2.0 7.0 0.00 0.00 0.00 89 996.4
20260901101353 59 246 2.0 7.0 0.00 0.00 0.00 89 996.4
20260901100851 60 264 3.0 5.0 0.00 0.00 0.00 89 996.5
20260901100353 60 234 2.0 5.0 0.00 0.00 0.00 89 996.4
20260901095852 60 245 2.0 5.0 0.00 0.00 0.00 89 996.3
20260901095352 59 247 2.0 5.0 0.00 0.00 0.00 89 996.4
20260901094851 59 299 2.0 5.0 0.00 0.00 0.00 88 996.3
20260901094353 59 226 2.0 6.0 0.00 0.00 0.00 88 996.3
20260901093847 59 250 2.0 6.0 0.00 0.00 0.00 88 996.3
20260901093348 59 207 2.0 5.0 0.00 0.00 0.00 88 996.3
20260901092349 59 228 3.0 8.0 0.00 0.00 0.00 88 996.3
20260901091847 59 221 3.0 8.0 0.00 0.00 0.00 87 996.3
20260901091349 59 228 3.0 8.0 0.00 0.00 0.00 87 996.6
20260901090848 59 214 3.0 10.0 0.00 0.00 0.00 87 996.5
20260901090347 59 233 3.0 10.0 0.00 0.00 0.00 87 996.5
20260901085849 59 266 3.0 7.0 0.00 0.00 0.00 87 996.4
20260901084344 59 227 2.0 7.0 0.00 0.00 0.00 87 996.2
20260901083845 59 208 2.0 7.0 0.00 0.00 0.00 87 996.3
20260901083343 59 263 2.0 6.0 0.00 0.00 0.00 87 996.4
20260901082844 59 273 3.0 7.0 0.00 0.00 0.00 87 996.4
20260901082343 59 221 3.0 7.0 0.00 0.00 0.00 87 996.3
20260901081844 59 226 3.0 6.0 0.00 0.00 0.00 87 996.3
20260901081344 59 264 3.0 6.0 0.00 0.00 0.00 87 996.4
20260901080839 59 213 3.0 6.0 0.00 0.00 0.00 87 996.4
20260901075839 59 230 2.0 8.0 0.00 0.00 0.00 87 996.4
20260901075337 59 242 2.0 7.0 0.00 0.00 0.00 86 996.3
20260901074837 59 242 3.0 8.0 0.00 0.00 0.00 86 996.2
20260901074337 59 240 3.0 8.0 0.00 0.00 0.00 86 996.2
20260901073838 59 227 3.0 7.0 0.00 0.00 0.00 86 996.2
20260901072835 59 205 4.0 9.0 0.00 0.00 0.00 86 996.4
20260901072337 60 214 3.0 8.0 0.00 0.00 0.00 85 996.4
20260901071835 60 223 3.0 8.0 0.00 0.00 0.00 85 996.2
20260901071335 60 236 3.0 8.0 0.00 0.00 0.00 85 996.2
20260901070836 60 228 3.0 6.0 0.00 0.00 0.00 84 996.2
20260901070330 60 227 3.0 7.0 0.00 0.00 0.00 84 996.3
20260901065824 60 213 3.0 7.0 0.00 0.00 0.00 83 996.3
20260901065318 60 252 3.0 7.0 0.00 0.00 0.00 83 996.3
20260901064812 59 242 3.0 8.0 0.00 0.00 0.00 83 996.3
20260901064305 59 209 4.0 8.0 0.00 0.00 0.00 83 996.3
20260901063254 59 240 3.0 8.0 0.00 0.00 0.00 83 996.3
20260901062748 59 214 3.0 8.0 0.00 0.00 0.00 83 996.3
20260901062242 59 242 3.0 8.0 0.00 0.00 0.00 83 996.4
20260901061736 59 205 3.0 9.0 0.00 0.00 0.00 83 996.3
20260901061230 59 232 3.0 9.0 0.00 0.00 0.00 83 996.3
20260901060724 59 246 3.0 7.0 0.00 0.00 0.00 83 996.5
20260901055719 59 215 3.0 8.0 0.00 0.00 0.00 83 996.5
20260901055221 59 283 3.0 8.0 0.00 0.00 0.00 83 996.5
20260901054721 59 253 2.0 6.0 0.00 0.00 0.00 82 996.5
20260901053718 59 224 2.0 8.0 0.00 0.00 0.00 82 996.6
20260901052717 59 239 2.0 4.0 0.00 0.00 0.00 82 996.6
20260901052218 59 238 2.0 9.0 0.00 0.00 0.00 82 996.6
20260901051715 59 279 3.0 9.0 0.00 0.00 0.00 82 996.6
20260901051216 59 234 2.0 7.0 0.00 0.00 0.00 83 996.6
20260901050713 59 234 2.0 8.0 0.00 0.00 0.00 83 996.5
20260901050214 60 266 2.0 8.0 0.00 0.00 0.00 83 996.5
20260901045713 60 254 2.0 7.0 0.00 0.00 0.00 83 996.5
20260901045214 60 229 2.0 8.0 0.00 0.00 0.00 83 996.5
20260901044707 60 265 3.0 8.0 0.00 0.00 0.00 82 996.5
20260901044201 60 213 3.0 12.0 0.00 0.00 0.00 82 996.5
20260901043655 60 273 3.0 12.0 0.00 0.00 0.00 82 996.5
20260901043150 60 190 2.0 5.0 0.00 0.00 0.00 81 996.4
20260901042138 60 230 3.0 7.0 0.00 0.00 0.00 81 996.5
20260901041632 60 215 3.0 7.0 0.00 0.00 0.00 81 996.4
20260901041126 60 237 3.0 8.0 0.00 0.00 0.00 81 996.3
20260901040114 60 270 3.0 8.0 0.00 0.00 0.00 81 996.3
20260901035608 60 229 2.0 8.0 0.00 0.00 0.00 80 996.3
20260901034556 60 212 3.0 10.0 0.00 0.00 0.00 80 996.2
20260901034050 60 249 3.0 10.0 0.00 0.00 0.00 80 996.1
20260901033039 60 229 3.0 7.0 0.00 0.00 0.00 80 996.0
20260901032532 60 248 3.0 7.0 0.00 0.00 0.00 80 995.9
20260901031014 60 244 3.0 8.0 0.00 0.00 0.00 80 995.6
20260901030507 60 240 3.0 8.0 0.00 0.00 0.00 80 995.6
20260901030002 60 207 4.0 10.0 0.00 0.00 0.00 79 995.6
20260901025455 60 231 4.0 10.0 0.00 0.00 0.00 79 995.7
20260901024950 60 265 3.0 10.0 0.00 0.00 0.00 80 995.6
20260901024443 60 244 3.0 10.0 0.00 0.00 0.00 79 995.6
20260901023941 60 321 3.0 10.0 0.00 0.00 0.00 79 995.6
20260901023441 60 229 4.0 13.0 0.00 0.00 0.00 79 995.6
20260901022941 60 202 4.0 13.0 0.00 0.00 0.00 79 995.6
20260901022441 60 256 3.0 8.0 0.00 0.00 0.00 79 995.6
20260901021942 60 270 3.0 9.0 0.00 0.00 0.00 79 995.6
20260901021441 61 267 4.0 12.0 0.00 0.00 0.00 79 995.5
20260901020941 61 230 4.0 12.0 0.00 0.00 0.00 79 995.6
20260901020441 61 265 4.0 10.0 0.00 0.00 0.00 78 995.6
20260901015941 61 203 4.0 9.0 0.00 0.00 0.00 78 995.6
20260901015441 61 235 4.0 12.0 0.00 0.00 0.00 78 995.6
20260901014941 61 240 4.0 12.0 0.00 0.00 0.00 78 995.6
20260901014440 61 238 4.0 10.0 0.00 0.00 0.00 78 995.7
20260901013941 61 241 3.0 10.0 0.00 0.00 0.00 78 995.6
20260901013442 61 254 4.0 10.0 0.00 0.00 0.00 78 995.7
20260901012942 61 239 3.0 10.0 0.00 0.00 0.00 79 995.5
20260901012440 61 281 3.0 10.0 0.00 0.00 0.00 79 995.6
20260901011942 61 225 3.0 10.0 0.00 0.00 0.00 79 995.5
20260901010930 61 242 4.0 11.0 0.00 0.00 0.00 79 995.5
20260901005918 61 194 4.0 10.0 0.00 0.00 0.00 82 995.5
20260901005412 61 217 4.0 13.0 0.00 0.00 0.00 83 995.4
20260901004906 61 230 4.0 13.0 0.00 0.00 0.00 83 995.5
20260901004400 61 204 4.0 10.0 0.00 0.00 0.00 84 995.6
20260901003854 61 256 5.0 10.0 0.00 0.00 0.00 84 995.6
20260901003348 61 233 4.0 10.0 0.00 0.00 0.00 84 995.7
20260901002842 61 218 5.0 11.0 0.00 0.00 0.00 84 995.7
20260901002336 61 244 5.0 11.0 0.00 0.00 0.00 84 995.7
20260901001324 61 238 3.0 9.0 0.00 0.00 0.00 83 995.7
20260901000314 61 232 5.0 11.0 0.00 0.00 0.00 83 995.7
20260831235813 61 202 4.0 11.0 0.00 0.00 0.00 84 995.8
20260831235309 61 212 5.0 12.0 0.00 0.00 0.00 84 995.8
20260831234810 61 232 5.0 12.0 0.00 0.00 0.00 84 995.9
20260831234308 61 228 5.0 10.0 0.00 0.00 0.00 83 995.9
20260831233810 61 214 5.0 10.0 0.00 0.00 0.00 83 995.9
20260831233310 61 213 5.0 11.0 0.00 0.00 0.00 83 996.0
20260831232808 61 267 4.0 11.0 0.00 0.00 0.00 83 995.9
20260831232309 61 194 5.0 10.0 0.00 0.00 0.00 83 995.9
20260831231809 61 158 5.0 11.0 0.00 0.00 0.00 82 995.9
20260831230809 62 192 5.0 10.0 0.00 0.00 0.00 82 996.1
20260831230310 62 198 4.0 10.0 0.00 0.00 0.00 82 996.1
20260831225810 62 241 4.0 10.0 0.00 0.00 0.00 82 996.1
20260831225310 62 217 4.0 9.0 0.00 0.00 0.00 83 996.1
20260831224804 62 212 4.0 9.0 0.00 0.00 0.00 82 996.1
20260831224305 62 232 5.0 11.0 0.00 0.00 0.00 82 996.2
20260831223804 62 211 5.0 12.0 0.00 0.00 0.00 83 996.3
20260831223304 61 225 5.0 12.0 0.00 0.00 0.00 83 996.3
20260831222306 61 229 5.0 10.0 0.00 0.00 0.00 83 996.4
20260831221805 61 236 5.0 11.0 0.00 0.00 0.00 83 996.4
20260831221306 61 247 5.0 12.0 0.00 0.00 0.00 83 996.5
20260831220301 61 232 5.0 10.0 0.00 0.00 0.00 83 996.5
20260831215800 61 228 4.0 13.0 0.00 0.00 0.00 83 996.6
20260831215301 61 221 5.0 13.0 0.00 0.00 0.00 83 996.6
20260831214801 61 253 5.0 11.0 0.00 0.00 0.00 83 996.7
20260831214300 61 217 5.0 11.0 0.00 0.00 0.00 83 996.7
20260831213802 61 209 5.0 10.0 0.00 0.00 0.00 84 996.7
20260831213302 61 222 5.0 10.0 0.00 0.00 0.00 84 996.7
20260831212802 61 217 5.0 12.0 0.00 0.00 0.00 84 996.8
20260831211757 60 227 5.0 10.0 0.00 0.00 0.00 84 996.9
20260831211256 60 221 5.0 12.0 0.00 0.00 0.00 84 996.9
20260831210757 60 223 5.0 12.0 0.00 0.00 0.00 84 997.0
20260831210256 60 234 4.0 10.0 0.00 0.00 0.00 84 997.1
20260831205758 61 240 4.0 9.0 0.00 0.00 0.00 84 997.0
20260831204756 60 217 3.0 8.0 0.00 0.00 0.00 85 996.9
20260831204256 60 244 4.0 8.0 0.00 0.00 0.00 85 996.9
20260831202756 59 250 3.0 9.0 0.00 0.00 0.00 86 996.9
20260831202256 59 223 4.0 9.0 0.00 0.00 0.00 85 996.8
20260831201256 59 159 4.0 9.0 0.00 0.00 0.00 85 996.8
20260831200756 59 229 4.0 9.0 0.00 0.00 0.00 85 996.8
20260831200256 59 265 4.0 9.0 0.00 0.00 0.00 85 996.8
20260831195756 59 237 4.0 8.0 0.00 0.00 0.00 85 996.9
20260831195256 59 213 4.0 10.0 0.00 0.00 0.00 85 997.0
20260831194757 59 236 4.0 10.0 0.00 0.00 0.00 85 996.9
20260831194256 59 248 3.0 9.0 0.00 0.00 0.00 85 997.0
20260831193754 59 247 3.0 8.0 0.00 0.00 0.00 85 997.0
20260831193255 59 254 3.0 9.0 0.00 0.00 0.00 85 997.0
20260831192754 59 190 3.0 9.0 0.00 0.00 0.00 84 997.0
20260831192254 59 200 4.0 11.0 0.00 0.00 0.00 85 997.0
20260831191754 59 208 4.0 11.0 0.00 0.00 0.00 84 997.1
20260831191248 59 204 4.0 9.0 0.00 0.00 0.00 85 997.2
20260831190740 59 173 4.0 9.0 0.00 0.00 0.00 84 997.0
20260831190239 59 246 4.0 9.0 0.00 0.00 0.00 84 997.1
20260831185739 59 248 3.0 7.0 0.00 0.00 0.00 84 997.1
20260831185239 59 228 3.0 8.0 0.00 0.00 0.00 84 997.1
20260831184736 59 169 3.0 8.0 0.00 0.00 0.00 84 997.2
20260831184236 59 208 4.0 8.0 0.00 0.00 0.00 84 997.1
20260831183738 59 222 4.0 11.0 0.00 0.00 0.00 84 997.2
20260831183234 59 266 4.0 11.0 0.00 0.00 0.00 85 997.2
20260831182734 59 260 4.0 11.0 0.00 0.00 0.00 84 997.0
20260831182236 59 232 4.0 10.0 0.00 0.00 0.00 85 997.1
20260831181732 58 242 4.0 12.0 0.00 0.00 0.00 85 997.0
20260831181234 58 177 4.0 12.0 0.00 0.00 0.00 85 997.1
20260831180733 58 208 4.0 9.0 0.00 0.00 0.00 85 997.2
20260831175731 58 260 4.0 10.0 0.00 0.00 0.00 86 997.2
20260831175231 58 182 4.0 10.0 0.00 0.00 0.00 86 997.3
20260831174731 58 234 4.0 16.0 0.00 0.00 0.00 85 997.3
20260831174230 58 221 5.0 16.0 0.00 0.00 0.00 86 997.1
20260831173725 58 201 5.0 14.0 0.00 0.00 0.00 86 997.1
20260831173219 58 266 5.0 16.0 0.00 0.00 0.00 86 997.1
20260831172207 57 190 4.0 9.0 0.00 0.00 0.00 86 996.9
20260831171701 57 190 4.0 10.0 0.00 0.00 0.00 87 996.9
20260831171155 57 233 5.0 10.0 0.00 0.00 0.00 87 996.9
20260831170648 57 169 5.0 10.0 0.00 0.00 0.00 87 997.2
20260831170143 57 209 5.0 10.0 0.00 0.00 0.00 87 996.8
20260831165636 57 189 5.0 10.0 0.00 0.00 0.00 87 996.8
20260831165131 57 188 4.0 10.0 0.00 0.00 0.00 87 996.8
20260831164626 57 223 4.0 9.0 0.00 0.00 0.00 88 996.7
20260831164118 57 165 4.0 10.0 0.00 0.00 0.00 88 996.7
20260831163613 57 215 4.0 12.0 0.00 0.00 0.00 88 996.8
20260831163106 57 216 4.0 12.0 0.00 0.00 0.00 88 996.6
20260831162601 57 142 3.0 8.0 0.00 0.00 0.00 88 996.5
20260831161549 57 246 4.0 7.0 0.00 0.00 0.00 88 996.3
20260831161044 57 222 4.0 10.0 0.00 0.00 0.00 88 996.5
20260831160031 57 192 4.0 13.0 0.00 0.00 0.00 88 996.3
20260831155019 56 217 3.0 7.0 0.00 0.00 0.00 89 996.3
20260831154513 56 265 3.0 8.0 0.00 0.00 0.00 89 996.3
20260831154006 56 208 3.0 10.0 0.00 0.00 0.00 89 996.4
20260831153500 56 177 3.0 10.0 0.00 0.00 0.00 89 996.3
20260831152449 56 266 3.0 10.0 0.00 0.00 0.00 89 996.2
20260831151943 56 200 5.0 11.0 0.00 0.00 0.00 89 996.2
20260831151438 56 160 3.0 11.0 0.00 0.00 0.00 89 996.2
20260831150931 56 218 3.0 11.0 0.00 0.00 0.00 89 996.3